Flag for Switzerland Weather past 2 weeks in Sion, Valais, Switzerland

Now
56 °F

Refreshingly cool.


Feels Like: 55 °F
Forecast: 46 / 77 °F
Wind: 5 mph from Northeast

Location: Sion

Current Time: May 28, 2015 at 10:21:26 AM

Latest Report: May 28, 2015 at 9:00 AM


Visibility: N/A

Pressure: 30.14 "Hg

Humidity: 55%

Dew point: 40 °F

Location of SionLocation

Historic Weather in Sion — Graph

°F

Sion temperature yesterday

Maximum temperature yesterday: 71 °F (at 4:00 PM)
Minimum temperature yesterday: 47 °F (at 5:00 AM)
Average temperature yesterday: 59 °F

Past Weeks' High & Low Weather Summary

 TemperatureHumidityPressure
High87 °F (May 13, 6:00 PM)95% (May 16, 3:00 AM)30.30 "Hg (May 16, 3:00 AM)
Low39 °F (May 16, 4:00 AM)21% (May 13, 6:00 PM)29.67 "Hg (May 14, 5:00 PM)
Average59 °F60%30.00 "Hg
* Reported May 13 9:00 AM — May 28 9:00 AM, Sion, Weather by CustomWeather, © 2015

Note: Actual official high and low records may vary slightly from our data, if they occured in-between our weather recording intervals... More about our weather records

Advertising

Sion weather history for previous 24 hours

 ConditionsComfort  
Time TempWeatherWind HumidityBarometerVisibility
9:00 AM
Thu, May 28
56 °FRefreshingly cool.5 mph55%30.14 "HgN/A
8:00 AM52 °FScattered clouds.5 mph62%30.16 "Hg16 mi
7:00 AM48 °FCool.2 mph71%30.18 "HgN/A
6:00 AM45 °FQuite cool.2 mph83%30.19 "HgN/A
5:00 AM45 °FClear.1 mph82%30.18 "Hg12 mi
4:00 AM47 °FCool.3 mph75%30.16 "HgN/A
3:00 AM50 °FCool.2 mph66%30.16 "HgN/A
2:00 AM49 °FClear.3 mph74%30.17 "Hg12 mi
1:00 AM51 °FCool.1 mph72%30.16 "HgN/A
12:00 AM52 °FCool.2 mph65%30.14 "HgN/A
11:00 PM
Wed, May 27
58 °FClear.3 mph51%30.10 "Hg12 mi
10:00 PM60 °FRefreshingly cool.10 mph46%30.08 "HgN/A
9:00 PM62 °FMild.14 mph42%30.05 "HgN/A
8:00 PM66 °FSunny.20 mph37%30.03 "Hg19 mi
7:00 PM68 °FMild.20 mph35%30.00 "HgN/A
6:00 PM71 °FMild.18 mph32%29.99 "HgN/A
5:00 PM70 °FSunny.18 mph31%30.00 "Hg19 mi
4:00 PM71 °FMild.18 mph29%30.00 "HgN/A
3:00 PM69 °FMild.20 mph31%30.01 "HgN/A
2:00 PM68 °FPassing clouds.17 mph33%30.03 "Hg19 mi
1:00 PM69 °FMild.13 mph32%30.04 "HgN/A
12:00 PM63 °FMild.14 mph38%30.08 "HgN/A
11:00 AM61 °FScattered clouds.10 mph42%30.11 "Hg16 mi
10:00 AM58 °FRefreshingly cool.5 mph53%30.14 "HgN/A
Weather by CustomWeather, © 2015

See weather overviewHow to use our weather pages